This is the latest recevied weather packets stored in our database for station/object K2CCS. If no packets are shown the sender has not sent any weather packets the latest 10 day(s).
| Time | Temp. | Humidity | Pressure | Rain* | Wind** | Luminosity | Snow |
|---|---|---|---|---|---|---|---|
| 1777574658 | 12.22° C | 94% | 1010.1 hPa | 3.05 mm | - | 44 W/m² | - |
| 1777574356 | 12.22° C | 93% | 1010.1 hPa | 0 mm | - | 36 W/m² | - |
| 1777574050 | 12.22° C | 93% | 1010.3 hPa | 0 mm | - | 61 W/m² | - |
| 1777573745 | 12.22° C | 93% | 1010.3 hPa | 0 mm | - | 71 W/m² | - |
| 1777573442 | 12.22° C | 94% | 1010.2 hPa | 0 mm | - | 107 W/m² | - |
| 1777573137 | 12.22° C | 93% | 1010.3 hPa | 0 mm | - | 104 W/m² | - |
| 1777572834 | 12.22° C | 93% | 1010.2 hPa | 0 mm | - | 118 W/m² | - |
| 1777572531 | 12.22° C | 94% | 1010.5 hPa | 0 mm | - | 119 W/m² | - |
| 1777572225 | 11.67° C | 95% | 1010.2 hPa | 0 mm | - | 157 W/m² | - |
| 1777571921 | 11.67° C | 96% | 1010.5 hPa | 0 mm | - | 158 W/m² | - |
| 1777571616 | 11.67° C | 97% | 1010.3 hPa | 0 mm | - | 139 W/m² | - |
| 1777571314 | 11.67° C | 98% | 1010.2 hPa | 0 mm | - | 126 W/m² | - |
| 1777571010 | 11.67° C | 98% | 1010.5 hPa | 0 mm | - | 163 W/m² | - |
| 1777570706 | 11.67° C | 98% | 1010.5 hPa | 0 mm | - | 165 W/m² | - |
| 1777570403 | 11.67° C | 99% | 1010.3 hPa | 0 mm | - | 147 W/m² | - |
| 1777570098 | 11.67° C | 99% | 1010.4 hPa | 0 mm | - | 173 W/m² | - |
| 1777569795 | 11.67° C | 99% | 1010.6 hPa | 0 mm | - | 159 W/m² | - |
| 1777569490 | 11.67° C | 99% | 1010.4 hPa | 0 mm | - | 105 W/m² | - |
| 1777569188 | 11.11° C | 99% | 1010.7 hPa | 0 mm | - | 80 W/m² | - |
| 1777568884 | 11.67° C | 99% | 1010.7 hPa | 0 mm | - | 82 W/m² | - |
| 1777568581 | 11.67° C | 99% | 1010.6 hPa | 0 mm | - | 78 W/m² | - |
| 1777568278 | 11.11° C | 99% | 1010.5 hPa | 0 mm | - | 87 W/m² | - |
| 1777567974 | 11.11° C | 99% | 1010.6 hPa | 0 mm | - | 91 W/m² | - |
| 1777567670 | 11.67° C | 99% | 1010.7 hPa | 0 mm | - | 139 W/m² | - |
| 1777567368 | 11.67° C | 99% | 1010.6 hPa | 0 mm | - | 103 W/m² | - |
* Rain latest hour (hover to see other rain measurements)
** Current wind speed in m/s (hover to see current wind gust speed)